Regional Weather Roundup
Issued by NWS Boston, MA

Home | Current Version | Previous Version | Text Only | Print | Product List | Glossary On
Versions: 1 2 3 4 5 6 7 8 9 10 11 12 13 14 15 16 17 18 19 20 21 22 23 24 25 26 27 28 29 30 31 32 33 34 35 36 37 38 39 40 41 42 43 44 45 46 47 48 49 50
000
ASUS41 KBOX 241710
RWRBOX

REGIONAL WEATHER ROUNDUP
NATIONAL WEATHER SERVICE TAUNTON MA
1200 PM EST FRI FEB 24 2017

NOTE:  "FAIR" INDICATES FEW OR NO CLOUDS BELOW 12,000 FEET WITH NO
SIGNIFICANT WEATHER AND/OR OBSTRUCTIONS TO VISIBILITY.

MAZALL-241800-
EASTERN MASSACHUSETTS

CITY           SKY/WX    TMP DP  RH WIND       PRES   REMARKS
BOSTON         PTSUNNY   67  54  63 S12       29.91F
BEVERLY        CLOUDY    64  53  67 S7        29.90F
LAWRENCE       CLOUDY    65  52  62 S12G17    29.92F
BEDFORD        PTSUNNY   70  50  49 S18G25    29.89F
BLUE HILL        N/A     67  52  58 SW20G32   29.91F
NORWOOD        PTSUNNY   70  53  54 SW16G26   29.91F
MARSHFIELD     MOSUNNY   68  54  60 SW15G31   29.92F
PLYMOUTH       MOSUNNY   69  52  54 SW22G29   29.95F
TAUNTON        NOT AVBL
NEW BEDFORD    SUNNY     68  52  56 SW18      29.96F
$$

MAZALL-241800-
CAPE COD AND THE ISLANDS

CITY           SKY/WX    TMP DP  RH WIND       PRES   REMARKS
FALMOUTH       MOSUNNY   64  52  63 MISG      29.98F
HYANNIS        MOSUNNY   61  51  70 SW15      29.97F
CHATHAM        MOSUNNY   56  49  77 VRB7G17   30.00F
PROVINCETOWN   CLOUDY    59  50  72 SW16G22   29.96F
NANTUCKET      SUNNY     53  46  77 SW13      30.01F
MARTHAS VNYRD  MOSUNNY   59  49  69 SW16      30.00F
$$

MAZALL-241800-
CENTRAL AND WESTERN MASSACHUSETTS

CITY           SKY/WX    TMP DP  RH WIND       PRES   REMARKS
WORCESTER      MOSUNNY   63  50  62 SW21G30   29.91F
FITCHBURG      MOSUNNY   66  51  58 S15       29.89F
ORANGE         MOSUNNY   61  51  70 S12G21    29.89F
SPRINGFIELD    MOSUNNY   68  52  56 S14       29.88F
WESTFIELD      SUNNY     66  52  60 S12       29.88F
NORTH ADAMS    MOSUNNY   65  51  60 VRB3      29.85F
PITTSFIELD     SUNNY     63  51  65 SW12      29.86F
$$

RIZALL-241800-
RHODE ISLAND

CITY           SKY/WX    TMP DP  RH WIND       PRES   REMARKS
PROVIDENCE     PTSUNNY   69  52  54 SW17      29.95F
NEWPORT        SUNNY     59  51  75 S8        29.98S
BLOCK ISLAND   MOSUNNY   56  50  80 SW14      30.00F
SMITHFIELD     MOSUNNY   66  53  63 SW10G18   29.94F
WESTERLY       MOSUNNY   59  47  64 S8        29.98F
$$

CTZALL-241800-
CONNECTICUT

CITY           SKY/WX    TMP DP  RH WIND       PRES   REMARKS
BRADLEY INTL   MOSUNNY   69  52  54 S17       29.90F
HARTFORD       SUNNY     67  53  61 SW10G24   29.91F
BRIDGEPORT     SUNNY     53  46  77 E6        29.95F
DANBURY        SUNNY     70  51  51 S12G23    29.92F
GROTON         CLOUDY    57  49  74 S6        29.97F
NEW HAVEN      SUNNY     58  49  72 SE6       29.95F
CHESTER        FAIR      64  54  68 SW10G22   29.95F
MERIDEN        SUNNY     67  53  61 S15G22    29.93F
WILLIMANTIC    SUNNY     69  54  58 SW15      29.94F
OXFORD         MOSUNNY   66  52  59 SW12G21   29.94F
$$

MEZ002-015-021-024-NHZ003-005-008-011-012-014-VTZ005-008-241800-
NORTHERN NEW ENGLAND

CITY           SKY/WX    TMP DP  RH WIND       PRES   REMARKS
PORTLAND ME    LGT RAIN  48  46  93 NE3       29.92S FOG
BANGOR ME      PTSUNNY   52  39  61 CALM      29.91F
CONCORD NH     CLOUDY    50  45  83 CALM      29.90F
MANCHESTER NH  CLOUDY    54  49  83 NW3       29.88F HAZE
NASHUA NH      PTSUNNY   62  53  72 CALM      29.89F
PORTSMOUTH NH  CLOUDY    53  53  99 CALM      29.89F FOG
JAFFREY NH     CLOUDY    59  52  77 VRB5      29.89F
KEENE NH       CLOUDY    46  45  96 CALM      29.90F FOG
BURLINGTON VT  LGT RAIN  44  37  76 NW6       29.87S
MT. WASHINGTON FOG       37  37 100 SW38G53     N/A  VSB 1/16WCI  24
$$

NYZ052-076-241800-
EASTERN NEW YORK

CITY           SKY/WX    TMP DP  RH WIND       PRES   REMARKS
ALBANY         PTSUNNY   64  51  62 S14       29.84F
NEW YORK CITY  MOSUNNY   67  53  61 S10       29.93F
$$

ANZALL-241800-
MARINE OBSERVATIONS

STATION/POSITION TIME  TEMP    WIND        PRES    VSBY  WAVE
                       AIR SEA DIR/SP/G                  HT/PER
                 (UTC) (F)     (DEG/KT/KT) (MB)    (MI)  (FT/S)
BOSTON BUOY      1550   46 43  120/  8/ 10 1013.3          3/11
BUZZARDS BAY     1600   47     220/ 12/ 12 1016.3R
NANTUCKET SOUND  1550   43 40  210/  6/  6 1016.1          1/ 9
MASS BAY-STELLWA 1604   45 42  170/ 12/ 12 1012.6F         3/11
ISLE OF SHOALS   1600   49     150/  6/  7 1012.9F
S OF BLOCK IS    1625      42                N/A           3/11
$$

......................KEY.........................
  SKY/WX - SKY CONDITION/PRESENT WEATHER
  TMP    - TEMPERATURE IN FAHRENHEIT
  DWPT   - DEWPOINT IN FAHRENHEIT
  RH     - RELATIVE HUMIDITY IN PERCENT
  WIND   - DIRECTION AND SPEED IN MPH
  PRES   - MEAN SEA LEVEL PRESSURE IN INCHES OF HG
  WCI    - WIND CHILL INDEX
  VSB    - VISIBILITY IN MILES
  HX     - HEAT INDEX
  TC     - TEMPERATURE IN CELSIUS
  VRB    - VARIABLE WIND DIRECTION
  N/A    - NOT AVAILABLE



USA.gov is the U.S. government's official web portal to all federal, state and local government web resources and services.